Aeroboteco Virtual Airlines! Uma nuvem a frente.



 INFORMAÇÕES METEOROLÓGICAS
METAR FOR KEEO
ADDS - METARS form results

(0726 UTC 26 May 2019)
Data provider http://aviationweather.gov/metar/data/
 
METAR text: KEEO 260653Z AUTO 06005KT 10SM CLR 03/M03 A3000 RMK AO2 SLP105 T00331028 402061011
Conditions at: KEEO (MEEKER , CO, US) observed 0653 UTC 26 May 2019
Temperature: 3.3°C (38°F)
Dewpoint: -2.8°C (27°F) [RH = 64%]
Pressure (altimeter): 30.00 inches Hg (1016.0 mb)
[Sea-level pressure: 1010.5 mb]
Winds: from the ENE (60 degrees) at 6 MPH (5 knots; 2.6 m/s)
Visibility: 10 or more miles (16+ km)
Ceiling: at least 12,000 feet AGL
Clouds: sky clear below 12,000 feet AGL
Weather: automated observation with no human augmentation;
there may or may not be significant weather present at this time

 MAPA DO AEROPORTO

 INFORMAÇÕES DA PISTA
Pista 03 Tamanho da pista 6500 ft Largura da pista 60 ft
Elevação da pista 6348 ft Ranhura da pista 0 ft Proa da pista 40
Pista 21 Tamanho da pista 6500 ft Largura da pista 60 ft
Elevação da pista 6421 ft Ranhura da pista 500 ft Proa da pista 220

 FREQUÊNCIAS DO AEROPORTO
Tipo ASOS Nome ASOS Frequência 135.525 MHZ
Tipo CNTR Nome DENVER CNT Frequência 134.5 MHZ
Tipo RDO Nome DENVER RDO Frequência 122.15 MHZ
Tipo UNIC Nome CTAF/UNICO Frequência 122.8 MHZ

 AUXÍLIOS DE NAVEGAÇÃO PRÓXIMOS AO AEROPORTO